OE2SWM Weather Reports


Display with metric or nautical units.
time (UTC)temp
F
wind
direction
speed
MPH
gust
MPH
rain 1hr
in
rain 24hr
in
rain mn
in
humidity
%
barometer
mb
20260505205000 48 0 0.0 0.0 0.00 0.00 0.00 75 965.0
20260505204000 50 0 0.0 0.0 0.00 0.00 0.00 74 965.0
20260505203000 50 0 0.0 0.0 0.00 0.00 0.00 73 965.0
20260505202000 51 0 0.0 0.0 0.00 0.00 0.00 71 965.0
20260505201000 51 0 0.0 0.0 0.00 0.00 0.00 69 965.0
20260505200000 53 0 0.0 0.0 0.00 0.00 0.00 67 965.0
20260505195000 55 0 0.0 0.0 0.00 0.00 0.00 64 965.0
20260505194000 55 0 0.0 0.0 0.00 0.00 0.00 63 965.0
20260505193000 55 0 0.0 0.0 0.00 0.00 0.00 62 964.0
20260505192000 55 0 0.0 0.0 0.00 0.00 0.00 61 964.0
20260505191000 55 0 0.0 0.0 0.00 0.00 0.00 62 964.0
20260505190000 55 0 0.0 0.0 0.00 0.00 0.00 62 964.0
20260505185000 57 0 0.0 0.0 0.00 0.00 0.00 61 964.0
20260505184000 57 0 0.0 0.0 0.00 0.00 0.00 60 964.0
20260505183000 57 0 0.0 0.0 0.00 0.00 0.00 60 964.0
20260505182000 57 0 0.0 0.0 0.00 0.00 0.00 60 964.0
20260505181000 59 0 0.0 0.0 0.00 0.00 0.00 58 964.0
20260505180000 59 0 0.0 0.0 0.00 0.00 0.00 57 964.0
20260505175000 60 0 0.0 0.0 0.00 0.00 0.00 56 964.0
20260505174000 60 0 0.0 0.0 0.00 0.00 0.00 56 964.0
20260505173000 60 0 0.0 0.0 0.00 0.00 0.00 53 964.0
20260505172000 62 0 0.0 0.0 0.00 0.00 0.00 51 964.0
20260505171000 64 0 0.0 0.0 0.00 0.00 0.00 51 964.0
20260505170000 62 0 0.0 0.0 0.00 0.00 0.00 53 964.0
20260505165000 62 0 0.0 0.0 0.00 0.00 0.00 53 964.0
20260505164000 62 0 0.0 0.0 0.00 0.00 0.00 53 964.0
20260505163000 62 0 0.0 0.0 0.00 0.00 0.00 53 964.0
20260505162000 62 0 0.0 0.0 0.00 0.00 0.00 52 964.0
20260505161000 64 0 0.0 0.0 0.00 0.00 0.00 50 964.0
20260505153000 64 0 0.0 0.0 0.00 0.00 0.00 51 964.0
20260505152000 64 0 0.0 0.0 0.00 0.00 0.00 51 964.0
20260505151000 64 0 0.0 0.0 0.00 0.00 0.00 51 964.0
20260505125000 69 0 0.0 0.0 0.00 0.00 0.00 44 964.0
20260505124000 69 0 0.0 0.0 0.00 0.00 0.00 43 964.0
20260505123000 73 0 0.0 0.0 0.00 0.00 0.00 41 964.0
20260505122000 73 0 0.0 0.0 0.00 0.00 0.00 42 964.0
20260505121000 73 0 0.0 0.0 0.00 0.00 0.00 42 964.0
20260505120000 71 0 0.0 0.0 0.00 0.00 0.00 44 964.0
20260505115000 71 0 0.0 0.0 0.00 0.00 0.00 43 964.0
20260505114000 71 0 0.0 0.0 0.00 0.00 0.00 45 964.0
20260505113000 69 0 0.0 0.0 0.00 0.00 0.00 43 964.0
20260505112000 71 0 0.0 0.0 0.00 0.00 0.00 43 964.0
20260505111000 69 0 0.0 0.0 0.00 0.00 0.00 42 964.0
20260505102000 68 0 0.0 0.0 0.00 0.00 0.00 45 965.0
20260505101000 68 0 0.0 0.0 0.00 0.00 0.00 45 965.0
20260505100000 69 0 0.0 0.0 0.00 0.00 0.00 46 965.0
20260505095000 68 0 0.0 0.0 0.00 0.00 0.00 46 965.0
20260505094000 68 0 0.0 0.0 0.00 0.00 0.00 46 965.0
20260505093000 66 0 0.0 0.0 0.00 0.00 0.00 47 965.0
20260505092000 66 0 0.0 0.0 0.00 0.00 0.00 46 965.0
20260505091000 66 0 0.0 0.0 0.00 0.00 0.00 47 965.0
20260505090000 66 0 0.0 0.0 0.00 0.00 0.00 49 965.0
20260505085000 66 0 0.0 0.0 0.00 0.00 0.00 49 965.0
20260505084000 64 0 0.0 0.0 0.00 0.00 0.00 49 965.0
20260505083000 64 0 0.0 0.0 0.00 0.00 0.00 48 965.0
20260505082000 64 0 0.0 0.0 0.00 0.00 0.00 48 965.0
20260505081000 64 0 0.0 0.0 0.00 0.00 0.00 50 965.0
20260505080000 64 0 0.0 0.0 0.00 0.00 0.00 51 966.0
20260505075000 62 0 0.0 0.0 0.00 0.00 0.00 50 965.0
20260505074000 62 0 0.0 0.0 0.00 0.00 0.00 52 966.0
20260505073000 62 0 0.0 0.0 0.00 0.00 0.00 53 966.0
20260505072000 60 0 0.0 0.0 0.00 0.00 0.00 54 966.0
20260505071000 60 0 0.0 0.0 0.00 0.00 0.00 53 966.0
20260505070000 60 0 0.0 0.0 0.00 0.00 0.00 55 966.0
20260505065000 59 0 0.0 0.0 0.00 0.00 0.00 60 966.0
20260505064000 57 0 0.0 0.0 0.00 0.00 0.00 61 966.0
20260505063000 55 0 0.0 0.0 0.00 0.00 0.00 62 966.0
20260505062000 57 0 0.0 0.0 0.00 0.00 0.00 60 966.0
20260505061000 55 0 0.0 0.0 0.00 0.00 0.00 62 966.0
20260505060000 57 0 0.0 0.0 0.00 0.00 0.00 65 966.0
20260505055000 53 0 0.0 0.0 0.00 0.00 0.00 69 966.0
20260505054000 55 0 0.0 0.0 0.00 0.00 0.00 64 966.0
20260505053000 60 0 0.0 0.0 0.00 0.00 0.00 56 966.0
20260505052000 71 0 0.0 0.0 0.00 0.00 0.00 44 966.0
20260505051000 71 0 0.0 0.0 0.00 0.00 0.00 46 966.0
20260505041000 42 0 0.0 0.0 0.00 0.00 0.00 88 966.0
20260505040000 42 0 0.0 0.0 0.00 0.00 0.00 89 967.0
20260505035000 42 0 0.0 0.0 0.00 0.00 0.00 86 967.0
20260505034000 42 0 0.0 0.0 0.00 0.00 0.00 86 967.0
20260505033000 42 0 0.0 0.0 0.00 0.00 0.00 86 967.0
20260505032000 42 0 0.0 0.0 0.00 0.00 0.00 85 967.0
20260505031000 42 0 0.0 0.0 0.00 0.00 0.00 84 967.0
20260505030000 44 0 0.0 0.0 0.00 0.00 0.00 85 967.0
20260505025000 44 0 0.0 0.0 0.00 0.00 0.00 85 967.0
20260505024000 44 0 0.0 0.0 0.00 0.00 0.00 86 967.0
20260505023000 44 0 0.0 0.0 0.00 0.00 0.00 85 967.0
20260505022000 44 0 0.0 0.0 0.00 0.00 0.00 85 967.0
20260505021000 44 0 0.0 0.0 0.00 0.00 0.00 85 967.0
20260505020000 44 0 0.0 0.0 0.00 0.00 0.00 84 967.0
20260505015000 44 0 0.0 0.0 0.00 0.00 0.00 85 967.0
20260505014000 44 0 0.0 0.0 0.00 0.00 0.00 85 967.0
20260505013000 44 0 0.0 0.0 0.00 0.00 0.00 85 967.0
20260505012000 44 0 0.0 0.0 0.00 0.00 0.00 84 967.0
20260505011000 44 0 0.0 0.0 0.00 0.00 0.00 82 967.0
20260505010000 44 0 0.0 0.0 0.00 0.00 0.00 83 967.0
20260505005000 46 0 0.0 0.0 0.00 0.00 0.00 80 967.0
20260505004000 46 0 0.0 0.0 0.00 0.00 0.00 80 967.0
20260505003000 46 0 0.0 0.0 0.00 0.00 0.00 80 967.0
20260505002000 46 0 0.0 0.0 0.00 0.00 0.00 79 968.0
20260505001000 48 0 0.0 0.0 0.00 0.00 0.00 76 968.0
20260505000000 48 0 0.0 0.0 0.00 0.00 0.00 75 968.0
20260504235000 48 0 0.0 0.0 0.00 0.00 0.00 74 967.0
20260504234000 50 0 0.0 0.0 0.00 0.00 0.00 72 968.0
20260504233000 50 0 0.0 0.0 0.00 0.00 0.00 73 968.0
20260504232000 50 0 0.0 0.0 0.00 0.00 0.00 72 968.0
20260504231000 50 0 0.0 0.0 0.00 0.00 0.00 71 968.0
20260504230000 51 0 0.0 0.0 0.00 0.00 0.00 71 968.0
20260504225000 51 0 0.0 0.0 0.00 0.00 0.00 67 968.0
20260504224000 51 0 0.0 0.0 0.00 0.00 0.00 67 968.0
20260504223000 51 0 0.0 0.0 0.00 0.00 0.00 67 968.0
20260504222000 51 0 0.0 0.0 0.00 0.00 0.00 67 968.0
20260504221000 50 0 0.0 0.0 0.00 0.00 0.00 71 968.0
20260504220000 50 0 0.0 0.0 0.00 0.00 0.00 71 968.0
20260504215000 50 0 0.0 0.0 0.00 0.00 0.00 70 968.0
20260504214000 50 0 0.0 0.0 0.00 0.00 0.00 69 968.0
20260504213000 50 0 0.0 0.0 0.00 0.00 0.00 69 968.0
20260504212000 50 0 0.0 0.0 0.00 0.00 0.00 68 968.0
20260504211000 51 0 0.0 0.0 0.00 0.00 0.00 67 968.0
20260504210000 51 0 0.0 0.0 0.00 0.00 0.00 68 968.0